Flag for Switzerland Weather past 2 weeks in Winterthur, Switzerland

Now
34 °F

Partly cloudy.


Feels Like: 31 °F
Forecast: 26 / 35 °F
Wind: 3 mph from Southwest

Location: Zurich-Kloten

Current Time: Jan 27, 2015 at 8:31:49 PM

Latest Report: Jan 27, 2015 at 7:50 PM


Visibility: N/A

Pressure: 30.24 "Hg

Humidity: 87%

Dew point: 30 °F

Location of WinterthurLocation

Historic Weather in Winterthur — Graph

°F

Winterthur temperature yesterday

Maximum temperature yesterday: 32 °F (at 8:50 PM)
Minimum temperature yesterday: 23 °F (at 4:20 AM)
Average temperature yesterday: 29 °F

Past Weeks' High & Low Weather Summary

 TemperatureHumidityPressure
High54 °F (Jan 13, 1:50 PM)100% (Jan 14, 9:50 PM)30.42 "Hg (Jan 14, 9:50 PM)
Low23 °F (Jan 25, 7:20 AM)33% (Jan 13, 1:50 PM)29.68 "Hg (Jan 16, 2:20 PM)
Average35 °F87%30.02 "Hg
* Reported Jan 12 7:20 PM — Jan 27 7:20 PM, Winterthur, Weather by CustomWeather, © 2014

Note: Actual official high and low records may vary slightly from our data, if they occured in-between our weather recording intervals... More about our weather records

Advertising

Winterthur weather history for previous 24 hours

 ConditionsComfort  
Time TempWeatherWind HumidityBarometerVisibility
7:20 PM
Jan 27
34 °FPassing clouds.1 mph87%30.24 "HgN/A
6:50 PM34 °FPartly cloudy.3 mph87%30.21 "HgN/A
6:20 PM36 °FPassing clouds.3 mph81%30.24 "HgN/A
5:50 PM36 °FPassing clouds.3 mph81%30.21 "HgN/A
5:20 PM36 °FPartly cloudy.6 mph81%30.21 "HgN/A
4:50 PM36 °FBroken clouds.7 mph81%30.21 "HgN/A
4:20 PM36 °FBroken clouds.6 mph81%30.21 "HgN/A
3:50 PM36 °FBroken clouds.7 mph81%30.21 "HgN/A
3:20 PM36 °FBroken clouds.8 mph81%30.21 "HgN/A
2:50 PM37 °FPartly sunny.6 mph75%30.21 "HgN/A
2:20 PM37 °FPartly sunny.9 mph75%30.21 "HgN/A
1:50 PM37 °FPartly sunny.8 mph75%30.21 "HgN/A
1:20 PM37 °FPartly sunny.7 mph81%30.21 "HgN/A
12:50 PM36 °FBroken clouds.6 mph81%30.21 "HgN/A
12:20 PM36 °FBroken clouds.8 mph87%30.24 "HgN/A
11:50 AM36 °FScattered clouds.8 mph87%30.24 "HgN/A
11:20 AM36 °FPartly sunny.3 mph87%30.24 "Hg6 mi
10:50 AM34 °FPartly sunny.3 mph93%30.24 "Hg6 mi
10:20 AM34 °FPartly sunny.3 mph93%30.24 "Hg6 mi
9:50 AM34 °FPartly sunny.2 mph93%30.21 "Hg6 mi
9:20 AM34 °FPartly sunny.No wind93%30.21 "Hg5 mi
8:50 AM34 °FPartly sunny.5 mph93%30.21 "Hg6 mi
8:20 AM34 °FPartly sunny.3 mph93%30.21 "Hg6 mi
7:50 AM34 °FPassing clouds.3 mph93%30.21 "Hg6 mi
7:20 AM34 °FPartly cloudy.3 mph93%30.18 "Hg6 mi
6:50 AM34 °FPartly cloudy.2 mph93%30.18 "HgN/A
6:20 AM34 °FPassing clouds.1 mph93%30.18 "HgN/A
5:50 AM34 °FLight rain. Partly cloudy.2 mph93%30.18 "HgN/A
5:20 AM34 °FLight rain. Partly cloudy.2 mph93%30.18 "HgN/A
4:50 AM34 °FLight rain. Partly cloudy.3 mph93%30.15 "HgN/A
4:20 AM34 °FLight rain. Partly cloudy.5 mph93%30.15 "HgN/A
3:50 AM34 °FLight rain. Partly cloudy.6 mph93%30.15 "Hg4 mi
3:20 AM34 °FPartly cloudy.8 mph93%30.15 "HgN/A
2:50 AM34 °FPartly cloudy.5 mph93%30.15 "Hg5 mi
2:20 AM34 °FPartly cloudy.5 mph93%30.15 "Hg4 mi
1:50 AM34 °FLight rain. Partly cloudy.7 mph93%30.15 "Hg3 mi
12:50 AM34 °FLight rain. Partly cloudy.8 mph93%30.15 "Hg4 mi
12:20 AM34 °FLight snow. Partly cloudy.7 mph93%30.15 "Hg3 mi
11:50 PM
Jan 26
32 °FLight snow. Passing clouds.5 mph100%30.15 "Hg4 mi
11:20 PM32 °FLight snow. Passing clouds.7 mph100%30.15 "Hg4 mi
10:50 PM32 °FLight snow. Passing clouds.7 mph100%30.15 "Hg2 mi
10:20 PM32 °FLight snow. Passing clouds.8 mph100%30.15 "Hg2 mi
9:50 PM32 °FLight snow. Partly cloudy.7 mph100%30.18 "Hg2 mi
9:20 PM32 °FSnow. Passing clouds.6 mph93%30.18 "Hg1 mi
8:50 PM32 °FSnow. Low clouds.7 mph93%30.18 "Hg1 mi
8:20 PM30 °FSnow. Low clouds.7 mph100%30.18 "Hg1 mi
Weather by CustomWeather, © 2014

See weather overviewHow to use our weather pages